Date,TemperatureHighF,TemperatureAvgF,TemperatureLowF,DewpointHighF,DewpointAvgF,DewpointLowF,HumidityHigh,HumidityAvg,HumidityLow,PressureMaxIn,PressureMinIn,WindSpeedMaxMPH,WindSpeedAvgMPH,GustSpeedMaxMPH,PrecipitationSumIn
2013-1-1,50.7,48.8,46.0,26.5,16.0,6.9,41,28,19,30.03,29.82,7,1,8,0.60
2013-1-2,56.3,51.0,48.4,33.7,26.4,19.2,48,39,29,30.00,29.79,4,0,5,0.00
2013-1-3,55.2,47.5,39.2,25.3,19.2,10.3,38,32,26,30.18,29.97,5,1,7,0.00
2013-1-4,57.2,41.6,30.6,14.3,7.6,0.2,33,25,17,30.21,30.09,7,2,8,0.00
2013-1-5,51.1,41.2,31.1,10.0,3.7,-2.4,23,21,18,30.26,30.12,5,1,6,0.00
2013-1-6,59.4,47.1,40.3,17.5,9.7,3.4,28,22,17,30.12,29.91,8,2,13,0.00
2013-1-7,59.7,43.6,32.0,14.7,6.2,-0.3,30,21,17,30.26,30.09,7,1,9,0.00
2013-1-8,53.8,43.3,31.3,15.2,7.1,-1.7,30,23,18,30.32,30.21,4,0,5,0.00
2013-1-9,66.6,56.1,49.5,25.4,16.8,8.8,31,21,17,30.32,30.24,4,0,5,0.00
2013-1-10,70.9,58.8,48.9,36.6,23.8,15.1,41,28,14,30.35,30.21,7,0,7,0.00
2013-1-11,57.9,55.8,54.5,35.6,31.7,23.2,46,40,27,30.21,30.03,4,0,7,0.44
2013-1-12,71.1,60.9,55.9,50.8,37.1,30.2,52,42,27,30.06,29.97,5,0,7,0.00
2013-1-13,67.3,60.3,55.4,44.7,37.9,33.4,48,44,37,30.03,29.94,4,0,5,0.00
2013-1-14,66.0,62.9,60.1,48.4,44.5,38.6,56,51,45,30.00,29.94,6,0,9,0.88
2013-1-15,62.6,57.8,51.3,46.6,41.7,34.2,57,55,52,30.00,29.91,5,1,6,0.40
2013-1-16,55.9,52.6,49.8,37.5,34.6,32.4,52,50,48,29.91,29.85,4,0,4,0.16
2013-1-17,55.2,51.3,40.5,37.9,33.2,21.8,52,50,47,30.09,29.62,7,1,10,1.64
2013-1-18,56.8,42.5,33.3,26.1,13.7,0.4,48,33,17,30.35,30.09,5,1,7,0.00
2013-1-19,57.7,41.7,30.7,18.8,7.8,2.0,36,25,17,30.35,30.09,7,1,8,0.00
2013-1-20,67.3,47.9,33.4,18.4,8.9,0.4,30,21,15,30.09,29.91,9,1,10,0.00
2013-1-21,64.4,45.2,32.2,16.1,6.4,-1.7,27,20,15,29.97,29.85,13,2,23,0.00
2013-1-22,50.2,40.3,33.4,9.4,3.1,-1.4,22,21,19,30.12,29.94,13,5,15,0.00
2013-1-23,55.2,41.7,30.2,11.6,3.8,-3.2,23,20,17,30.21,29.97,16,4,18,0.00
2013-1-24,59.4,47.8,32.7,14.5,7.4,-1.8,23,19,17,30.35,29.91,19,5,21,0.00
2013-1-25,33.3,31.5,29.7,3.3,-1.5,-3.6,28,24,23,30.35,29.97,6,1,7,0.00
2013-1-26,57.6,40.8,32.4,22.5,9.6,0.4,39,28,17,30.18,29.97,4,0,5,0.08
2013-1-27,52.9,42.0,32.4,12.5,6.8,2.0,31,24,18,30.41,30.18,7,1,8,0.00
2013-1-28,53.8,47.5,42.8,14.6,8.6,4.4,27,20,18,30.32,30.15,4,0,5,0.00
2013-1-29,68.4,54.8,41.7,31.9,22.5,12.8,36,29,22,30.15,29.88,5,0,7,0.00
2013-1-30,65.7,59.6,47.8,42.6,35.6,21.1,49,41,27,29.91,29.38,11,3,21,1.23
2013-1-31,51.8,43.1,36.7,22.6,6.2,0.4,37,22,18,29.97,29.53,19,7,24,0.00
2013-2-1,47.5,39.3,31.3,7.2,2.5,-2.3,23,21,19,30.24,29.88,19,5,23,0.00
2013-2-2,49.1,35.0,24.6,16.6,2.8,-8.9,41,26,19,30.24,29.94,9,2,11,0.24
2013-2-3,55.6,42.8,34.2,15.3,10.4,3.7,41,28,17,29.94,29.79,14,4,21,0.00
2013-2-4,53.2,41.6,32.2,10.8,3.8,-1.8,23,20,18,30.03,29.88,7,1,10,0.00
2013-2-5,62.2,47.9,34.9,15.4,8.5,0.2,28,20,16,29.88,29.79,13,3,19,0.00
2013-2-6,70.9,50.7,36.5,23.1,12.6,4.8,34,23,14,30.06,29.88,7,1,10,0.00
2013-2-7,52.7,46.6,41.7,19.4,10.0,3.8,33,23,18,30.09,29.85,6,1,7,0.04
2013-2-8,60.1,50.3,41.2,26.3,16.6,3.8,37,27,16,30.00,29.79,9,2,14,0.00
2013-2-9,65.3,45.9,30.7,16.4,7.3,-0.6,30,21,15,30.18,29.97,7,1,7,0.00
2013-2-10,60.6,48.2,38.5,18.2,9.8,1.9,29,21,16,30.26,30.03,5,1,7,0.00
2013-2-11,57.7,52.9,49.1,35.2,27.5,18.2,43,37,29,30.06,29.88,9,2,9,0.00
2013-2-12,59.5,50.3,43.2,23.6,15.5,9.3,35,26,17,29.97,29.76,6,0,10,0.00
2013-2-13,56.1,47.5,41.5,24.0,15.9,3.8,36,29,17,29.79,29.59,15,2,16,0.00
2013-2-14,58.6,44.3,32.2,14.6,7.4,0.2,30,22,17,29.94,29.76,7,1,8,0.00
2013-2-15,64.0,46.5,32.4,20.8,9.7,2.8,31,23,15,29.97,29.82,11,2,11,0.00
2013-2-16,53.1,41.5,30.0,10.6,3.8,-3.3,23,21,18,29.94,29.70,14,3,17,0.00
2013-2-17,49.8,36.5,28.0,9.1,0.7,-6.9,23,22,19,30.15,29.94,14,4,18,0.00
2013-2-18,62.1,42.5,26.4,15.3,4.1,-7.5,24,20,16,30.24,30.06,8,1,11,0.00
2013-2-19,58.1,45.6,38.7,18.6,8.2,2.0,30,22,17,30.06,29.79,13,3,17,0.04
2013-2-20,64.9,45.7,31.1,16.1,6.1,-2.4,23,20,15,30.00,29.91,7,2,11,0.00
2013-2-21,63.0,46.1,30.6,16.0,6.4,-2.9,23,20,16,30.09,29.94,6,1,8,0.00
2013-2-22,45.3,42.9,40.3,15.2,13.2,8.5,32,30,22,30.12,29.97,5,1,9,0.00
2013-2-23,48.0,44.9,41.9,23.6,19.9,14.8,39,37,32,30.00,29.73,4,0,5,0.00
2013-2-24,72.3,53.5,40.5,34.9,19.4,5.7,48,29,14,29.88,29.76,7,2,8,0.00
2013-2-25,54.9,46.2,38.8,11.8,6.7,3.1,26,20,17,30.03,29.85,6,2,9,0.00
2013-2-26,46.8,41.6,37.8,21.8,16.3,6.8,39,36,26,29.88,29.50,7,2,10,0.00
2013-2-27,62.4,49.5,40.8,16.4,11.2,7.1,33,22,16,29.70,29.59,11,4,14,0.00
2013-2-28,54.0,44.2,36.5,11.3,5.4,0.2,21,20,18,29.79,29.64,16,5,17,0.00
2013-3-1,57.7,42.9,30.4,13.1,4.8,-3.0,26,20,17,29.82,29.73,6,1,8,0.00
2013-3-2,51.6,41.6,34.5,15.2,5.3,-0.4,29,22,18,29.82,29.73,10,2,11,0.04
2013-3-3,56.8,39.1,28.0,12.4,2.2,-5.2,23,21,17,29.91,29.76,9,2,10,0.00
2013-3-4,61.9,42.2,25.5,15.0,4.0,-8.4,24,20,16,30.03,29.88,7,1,10,0.00
2013-3-5,54.0,44.6,37.2,25.8,10.0,0.8,40,24,20,29.94,29.56,12,1,21,0.00
2013-3-6,49.5,40.1,34.3,8.7,3.0,-0.6,24,21,19,30.00,29.64,14,6,19,0.00
2013-3-7,65.3,44.8,28.6,16.4,6.3,-3.2,30,21,15,30.12,30.00,8,1,9,0.00
2013-3-8,66.4,46.0,30.7,17.2,6.4,-2.7,25,20,15,30.18,30.06,6,1,7,0.00
2013-3-9,68.2,49.1,32.4,18.5,8.2,-1.8,25,19,15,30.24,30.09,6,1,8,0.00
2013-3-10,72.5,54.4,41.4,20.5,11.4,3.7,23,18,14,30.18,30.03,5,1,6,0.00
2013-3-11,61.5,54.3,47.5,31.1,17.8,7.2,38,24,19,30.03,29.70,8,0,10,0.04
2013-3-12,75.2,58.7,49.1,35.9,24.5,8.6,45,30,13,29.91,29.64,11,2,14,0.00
2013-3-13,58.3,47.3,37.6,13.6,7.2,1.0,21,19,17,30.06,29.91,15,4,17,0.00
2013-3-14,62.1,44.6,30.6,15.3,5.5,-2.9,23,20,16,30.21,30.03,9,2,9,0.00
2013-3-15,73.6,53.3,32.5,20.3,10.0,-1.8,23,18,13,30.06,29.79,12,2,18,0.00
2013-3-16,79.5,65.1,54.7,23.0,16.4,10.6,17,15,12,29.82,29.67,11,4,15,0.00
2013-3-17,80.8,64.7,50.4,23.3,16.4,8.8,23,16,12,29.88,29.76,8,2,12,0.00
2013-3-18,60.1,48.1,45.5,21.3,14.0,6.9,36,26,16,29.97,29.76,7,1,10,0.00
2013-3-19,70.7,54.0,42.1,29.5,17.7,7.2,41,26,14,29.94,29.73,12,2,15,0.00
2013-3-20,65.8,50.1,39.7,16.8,8.8,3.0,21,19,15,30.00,29.70,11,2,16,0.00
2013-3-21,54.7,42.5,33.6,11.8,4.4,-1.2,22,20,17,29.82,29.70,12,5,19,0.00
2013-3-22,54.0,43.0,33.3,11.3,4.6,-1.5,22,20,18,29.94,29.82,6,1,7,0.00
2013-3-23,57.9,48.3,42.3,21.9,12.6,4.0,28,24,19,29.91,29.76,5,0,6,0.00
2013-3-24,55.6,48.7,46.2,27.1,19.3,14.3,39,31,25,29.76,29.44,7,1,10,0.00
2013-3-25,46.6,41.5,36.5,18.5,4.7,0.2,33,21,19,29.85,29.47,20,8,24,0.00
2013-3-26,54.1,40.9,32.0,11.2,3.5,-1.8,23,21,18,30.09,29.82,10,4,13,0.00
2013-3-27,66.2,46.1,31.1,16.9,6.3,-2.6,23,19,15,30.15,30.03,9,2,10,0.00
2013-3-28,67.5,48.0,30.2,18.1,7.2,-3.2,23,19,15,30.21,30.03,12,2,18,0.00
2013-3-29,63.0,48.5,32.2,16.0,7.7,-1.7,23,19,16,30.24,30.09,8,1,8,0.00
2013-3-30,74.8,58.1,46.9,20.6,15.0,8.0,28,19,13,30.09,29.91,8,1,8,0.00
2013-3-31,71.1,59.4,52.2,34.7,23.7,10.6,39,26,14,29.94,29.73,11,3,13,0.56
2013-4-1,77.0,62.8,51.3,32.1,22.2,12.0,39,23,13,29.88,29.73,11,2,11,0.00
2013-4-2,76.8,60.0,47.7,22.0,13.9,7.4,19,16,13,30.03,29.88,11,3,15,0.00
2013-4-3,66.0,57.7,50.5,16.9,12.8,8.8,19,17,15,30.12,29.97,8,2,10,0.00
2013-4-4,54.9,46.8,41.4,14.1,10.3,3.8,30,23,17,30.09,29.85,9,2,10,0.44
2013-4-5,72.5,54.0,41.2,22.3,16.0,9.1,34,23,13,29.94,29.79,6,1,7,0.00
2013-4-6,77.5,56.9,39.4,22.7,15.2,9.0,30,20,13,30.09,29.94,5,1,7,0.00
2013-4-7,78.8,59.5,42.1,22.8,14.8,5.9,28,18,12,30.12,29.97,7,1,9,0.00
2013-4-8,80.6,64.7,51.4,27.7,19.4,10.5,27,18,12,30.06,29.94,9,1,10,0.00
2013-4-9,87.8,68.6,53.4,31.0,23.2,15.9,32,19,11,30.09,29.97,9,1,10,0.00
2013-4-10,90.5,71.0,55.6,35.9,25.3,16.2,34,19,11,30.00,29.85,8,1,9,0.00
2013-4-11,82.2,68.7,58.5,35.4,26.5,18.8,33,21,12,29.85,29.62,7,1,11,0.16
2013-4-12,75.7,66.7,59.5,42.0,28.8,13.5,43,27,13,29.73,29.56,14,5,21,0.67
2013-4-13,84.9,65.6,46.6,28.5,17.5,7.4,26,16,11,29.88,29.73,7,1,9,0.00
2013-4-14,71.6,60.6,50.5,22.6,15.5,8.8,26,17,14,29.97,29.85,5,0,8,0.00
2013-4-15,78.8,64.7,56.7,39.1,26.5,17.6,37,25,13,30.06,29.85,7,1,7,0.12
2013-4-16,86.4,70.6,62.4,32.9,25.9,17.8,28,20,12,30.18,30.06,5,1,8,0.00
2013-4-17,88.0,68.5,61.0,38.7,31.0,19.2,36,26,12,30.12,30.00,9,1,9,0.12
2013-4-18,84.2,70.3,62.4,44.1,32.5,19.0,43,28,12,30.03,29.85,7,1,7,0.00
2013-4-19,69.4,63.3,50.4,41.4,32.2,17.6,39,32,19,29.85,29.67,10,2,11,0.63
2013-4-20,71.1,55.4,41.2,19.4,14.9,9.6,29,21,14,30.12,29.82,6,1,9,0.00
2013-4-21,73.8,57.6,43.5,20.5,13.2,5.6,27,18,13,30.26,30.12,7,2,9,0.00
2013-4-22,73.6,59.5,49.1,20.3,13.6,8.6,19,16,13,30.26,30.06,7,2,9,0.00
2013-4-23,75.7,59.9,45.3,21.3,13.8,5.6,22,17,13,30.15,29.97,5,1,6,0.00
2013-4-24,75.7,61.9,51.3,29.5,22.3,11.8,29,22,13,30.03,29.91,12,2,18,0.00
2013-4-25,78.8,64.1,52.0,32.8,23.2,11.5,34,23,12,30.15,29.94,6,1,8,0.00
2013-4-26,76.6,61.6,46.0,22.0,14.6,5.9,21,16,13,30.29,30.12,6,1,8,0.00
2013-4-27,60.8,58.0,55.2,30.5,23.2,13.0,36,27,16,30.24,30.12,4,0,6,0.12
2013-4-28,56.8,55.4,53.4,35.7,32.4,29.0,45,42,36,30.12,29.94,0,0,4,0.48
2013-4-29,75.6,63.8,55.9,44.8,31.8,19.4,47,33,15,29.97,29.82,6,1,8,0.00
2013-4-30,82.0,66.8,55.2,40.1,27.1,17.6,38,24,12,30.03,29.88,7,1,9,0.00
2013-5-1,72.3,65.2,59.7,27.4,22.7,16.2,25,20,14,30.12,30.03,7,1,8,0.00
2013-5-2,68.4,62.5,60.1,29.2,25.5,18.4,27,24,21,30.15,30.09,6,1,7,0.00
2013-5-3,64.4,60.4,58.1,31.5,26.6,22.0,35,28,21,30.09,29.94,7,2,8,0.00
2013-5-4,59.7,55.6,53.1,29.4,22.8,14.5,38,28,19,29.97,29.79,6,1,7,0.71
2013-5-5,55.9,53.9,51.4,35.1,32.0,28.7,46,43,38,29.85,29.67,8,0,8,0.12
2013-5-6,67.3,57.1,50.2,35.4,26.9,14.6,46,33,18,29.79,29.67,8,0,10,0.00
2013-5-7,73.0,57.9,47.7,29.9,21.2,12.8,36,25,13,29.85,29.76,8,0,9,0.00
2013-5-8,71.6,60.9,50.2,39.3,26.8,19.1,39,29,16,29.91,29.82,7,1,9,0.00
2013-5-9,84.9,66.1,54.9,39.8,29.2,16.7,36,26,12,29.97,29.91,6,0,9,0.00
2013-5-10,78.8,66.8,57.0,41.9,30.7,22.4,39,28,15,29.97,29.85,7,0,10,0.00
2013-5-11,75.7,67.8,61.9,39.6,32.3,19.7,36,28,15,29.88,29.73,10,2,15,0.00
2013-5-12,76.3,63.7,53.1,33.0,23.5,11.1,36,24,13,29.94,29.76,8,2,12,0.00
2013-5-13,74.5,60.3,46.0,20.3,14.0,6.0,19,16,13,30.09,29.94,9,2,13,0.00
2013-5-14,76.6,62.4,45.3,22.0,15.2,5.6,22,16,13,30.15,29.97,5,1,9,0.00
2013-5-15,90.7,74.5,62.1,31.4,23.2,15.1,20,15,11,30.00,29.85,7,2,10,0.00
2013-5-16,81.5,70.5,61.3,31.6,23.9,15.7,25,18,12,29.94,29.88,7,1,8,0.00
2013-5-17,84.0,71.1,60.8,41.5,28.3,18.9,35,22,12,30.00,29.91,0,0,0,0.00
2013-5-18,76.1,68.1,64.2,49.3,37.2,21.3,42,33,20,30.03,29.94,5,0,6,0.00
2013-5-19,72.7,69.1,66.6,49.7,42.7,37.9,46,39,32,30.00,29.91,3,0,4,0.00
2013-5-20,82.9,70.8,63.0,51.4,38.8,25.3,46,33,14,30.00,29.91,4,0,5,0.00
2013-5-21,89.1,73.1,65.7,51.7,37.9,22.4,43,30,12,29.94,29.82,4,0,5,0.00
2013-5-22,85.5,72.0,64.6,50.8,37.2,23.8,44,30,13,29.91,29.76,4,0,4,0.00
2013-5-23,82.9,72.1,64.9,51.7,34.6,17.9,45,29,11,29.85,29.73,11,2,15,0.00
2013-5-24,81.7,70.1,59.9,27.6,18.7,13.5,18,14,11,30.09,29.82,6,1,9,0.00
2013-5-25,77.7,64.4,50.5,22.8,16.2,8.8,20,16,13,30.21,30.06,4,0,7,0.00
2013-5-26,76.1,66.2,58.3,22.8,18.6,13.9,21,16,13,30.18,30.06,4,0,5,0.00
2013-5-27,84.0,69.9,57.6,35.6,25.7,15.7,34,20,11,30.15,30.03,0,0,0,0.00
2013-5-28,85.8,72.7,63.7,40.0,29.9,20.4,35,22,12,30.12,30.03,4,0,5,0.00
2013-5-29,84.9,73.4,64.4,40.2,30.0,20.4,34,21,12,30.15,30.06,3,0,4,0.00
2013-5-30,85.3,73.5,65.3,40.7,30.5,21.1,33,22,12,30.18,30.06,0,0,4,0.00
2013-5-31,87.1,75.0,67.3,42.2,32.1,22.3,35,22,13,30.12,30.00,5,0,7,0.00
2013-6-1,86.4,75.4,69.3,40.7,33.3,24.3,33,23,13,30.03,29.91,6,1,7,0.00
2013-6-2,77.5,71.4,68.9,47.5,41.4,32.5,42,34,27,29.94,29.82,3,0,4,0.04
2013-6-3,83.3,72.4,67.5,53.7,44.9,32.0,47,38,22,29.85,29.73,6,0,8,0.00
2013-6-4,87.4,74.5,64.8,47.2,36.1,23.8,43,28,13,29.94,29.85,4,0,5,0.00
2013-6-5,85.3,74.3,66.7,42.8,34.1,24.0,34,24,13,29.97,29.85,10,0,10,0.31
2013-6-6,73.9,69.4,66.0,49.6,44.8,37.4,44,41,35,29.91,29.70,4,0,10,0.24
2013-6-7,83.8,71.7,67.5,55.6,45.1,30.8,49,40,20,29.73,29.59,7,1,12,0.64
2013-6-8,84.9,74.1,67.1,52.6,38.2,26.2,46,30,13,30.00,29.70,5,0,7,0.00
2013-6-9,87.4,73.2,68.5,49.1,41.1,27.9,42,33,14,30.03,29.91,5,0,8,0.91
2013-6-10,77.5,72.2,66.6,51.4,44.6,36.1,47,38,24,29.97,29.82,12,2,25,0.94
2013-6-11,88.2,77.2,69.8,54.8,38.7,25.0,46,28,13,29.91,29.82,6,1,8,0.63
2013-6-12,88.3,76.2,66.9,47.0,37.5,26.6,36,26,15,29.94,29.82,6,1,8,0.00
2013-6-13,92.1,78.3,69.6,44.3,36.7,23.6,37,24,12,29.85,29.62,13,2,16,0.24
2013-6-14,84.7,73.1,62.8,42.7,32.4,18.4,41,25,12,29.94,29.70,0,0,4,0.00
2013-6-15,86.5,73.6,62.2,33.2,25.2,17.6,25,17,11,30.03,29.91,0,0,0,0.00
2013-6-16,87.1,75.0,64.9,42.3,32.2,25.0,36,22,13,30.06,29.91,8,1,8,0.00
2013-6-17,84.0,74.5,69.3,52.0,41.1,32.4,42,31,21,29.97,29.82,9,1,15,0.40
2013-6-18,84.2,74.8,69.8,54.3,41.8,33.0,45,32,19,29.88,29.70,10,2,14,0.24
2013-6-19,83.3,74.4,69.3,42.9,35.4,25.8,34,25,14,30.00,29.76,4,0,4,0.00
2013-6-20,86.0,74.0,66.7,45.5,35.0,23.7,38,26,13,30.12,30.00,4,0,5,0.00
2013-6-21,85.5,74.3,67.3,41.3,32.8,21.3,35,24,13,30.18,30.06,0,0,0,0.00
2013-6-22,85.5,74.4,65.5,40.8,31.0,21.1,34,22,12,30.15,30.00,4,0,5,0.00
2013-6-23,88.3,75.3,66.0,45.3,33.7,26.2,34,23,13,30.12,30.00,4,0,4,0.00
2013-6-24,86.4,76.4,69.6,53.7,38.6,27.5,43,28,13,30.12,30.00,0,0,5,0.08
2013-6-25,88.3,76.2,69.3,51.6,38.6,27.0,43,28,13,30.06,29.91,5,0,7,0.00
2013-6-26,88.5,76.6,69.6,53.7,39.4,25.8,43,28,13,29.97,29.82,9,1,10,0.00
2013-6-27,90.1,79.1,72.1,52.0,39.3,29.0,41,26,12,29.88,29.64,11,2,16,0.00
2013-6-28,92.5,79.4,70.9,47.5,34.9,26.1,33,21,11,29.73,29.53,11,1,13,0.00
2013-6-29,89.1,78.1,69.3,47.8,35.2,21.2,38,23,11,29.62,29.56,10,2,13,0.00
2013-6-30,89.6,76.1,69.6,44.8,33.3,23.8,33,22,12,29.73,29.62,3,0,4,0.00
2013-7-1,85.5,74.3,69.3,51.6,38.6,26.5,41,29,13,29.85,29.70,7,0,11,0.36
2013-7-2,84.2,74.9,69.3,54.3,44.3,30.9,47,35,16,30.03,29.85,5,0,6,0.04
2013-7-3,81.0,72.6,67.5,54.8,45.1,38.4,44,38,30,30.12,30.00,6,1,8,2.40
2013-7-4,76.8,70.0,67.1,56.9,48.8,43.5,51,47,42,30.12,30.03,6,0,8,1.87
2013-7-5,82.4,73.4,69.6,59.6,48.4,32.8,55,43,20,30.15,30.06,4,0,7,0.64
2013-7-6,84.6,74.2,69.6,58.7,48.1,35.2,51,41,20,30.12,30.00,5,0,8,1.23
2013-7-7,81.9,74.4,71.4,55.7,49.1,40.7,49,41,27,30.06,30.00,6,0,9,1.70
2013-7-8,87.8,76.7,70.5,57.9,46.8,31.4,50,37,15,30.09,30.00,5,0,7,0.20
2013-7-9,88.2,76.5,70.3,57.6,44.1,32.8,47,34,18,30.12,29.97,5,0,10,0.32
2013-7-10,86.4,75.3,71.6,55.0,45.7,32.0,46,36,19,30.03,29.88,10,0,13,0.04
2013-7-11,78.8,74.5,68.7,55.4,50.7,41.3,49,44,35,29.91,29.79,4,0,10,0.28
2013-7-12,88.2,72.4,67.3,57.7,44.6,32.6,49,38,18,29.88,29.79,6,0,10,0.51
2013-7-13,79.3,72.2,67.3,53.0,45.2,41.3,45,38,32,30.00,29.88,4,0,5,3.08
2013-7-14,80.1,73.1,70.0,59.1,49.0,42.9,50,43,35,30.15,29.97,6,0,6,0.84
2013-7-15,84.2,74.6,69.8,60.5,47.8,36.4,53,40,21,30.21,30.15,4,0,5,0.70
2013-7-16,88.3,77.2,70.2,61.6,45.3,32.9,52,35,15,30.21,30.12,0,0,0,0.00
2013-7-17,89.4,76.1,69.8,57.4,45.0,25.4,47,35,14,30.18,30.03,4,0,6,0.12
2013-7-18,88.7,77.0,69.4,58.3,44.3,31.4,50,34,15,30.12,29.97,4,0,5,0.00
2013-7-19,90.1,78.2,70.7,55.8,43.6,27.3,46,32,12,30.03,29.88,4,0,5,0.00
2013-7-20,89.2,76.3,73.0,55.5,46.2,27.9,45,36,16,29.94,29.85,5,0,6,0.04
2013-7-21,88.3,75.4,70.9,59.4,48.1,32.2,51,40,18,29.94,29.82,7,1,11,2.76
2013-7-22,87.1,76.4,70.3,58.9,45.5,35.0,51,36,18,29.91,29.76,8,2,13,0.00
2013-7-23,89.1,77.4,70.0,46.9,39.2,28.2,40,27,12,29.82,29.70,11,3,11,0.00
2013-7-24,75.9,71.7,69.8,51.1,43.5,36.1,42,36,28,29.73,29.67,3,0,5,0.00
2013-7-25,88.0,79.2,70.2,49.1,35.5,26.2,41,22,13,29.91,29.82,7,0,11,0.00
2013-7-26,88.0,75.5,68.9,48.2,38.4,27.2,38,28,13,30.00,29.88,11,0,13,0.63
2013-7-27,81.3,74.2,69.3,57.1,46.4,38.7,49,38,28,29.94,29.79,5,0,13,0.08
2013-7-28,87.3,75.1,68.0,53.9,41.4,26.3,46,32,13,29.91,29.82,6,0,8,0.00
2013-7-29,85.5,74.2,66.4,47.1,37.8,26.3,41,29,13,30.06,29.91,0,0,0,0.00
2013-7-30,86.9,75.4,66.9,43.4,36.5,26.6,34,26,13,30.12,30.03,4,0,4,0.00
2013-7-31,80.8,74.7,70.7,51.7,42.5,34.4,40,32,25,30.06,29.88,6,0,10,0.00
2013-8-1,88.9,76.4,72.0,52.1,44.2,31.2,42,33,15,29.91,29.79,5,1,7,0.04
2013-8-2,87.3,76.5,69.3,50.5,41.9,27.3,44,32,13,29.94,29.82,0,0,4,0.00
2013-8-3,86.7,77.2,70.3,52.9,38.8,26.3,45,28,13,29.94,29.85,8,2,11,0.00
2013-8-4,90.3,77.0,70.7,46.4,38.3,27.3,37,26,12,29.94,29.85,3,0,4,0.12
2013-8-5,86.5,76.1,69.4,43.8,39.0,31.0,36,28,16,29.97,29.88,4,0,6,0.00
2013-8-6,86.4,76.2,71.2,58.3,45.5,36.2,47,35,19,29.97,29.85,8,0,13,5.71
2013-8-7,77.0,73.3,71.8,58.7,53.4,47.2,55,50,43,29.97,29.91,4,0,5,3.74
2013-8-8,80.6,74.8,71.8,60.8,54.3,48.9,55,49,38,30.00,29.91,4,0,6,0.08
2013-8-9,86.7,75.9,72.3,59.4,50.7,34.1,51,42,20,30.00,29.94,11,0,15,0.43
2013-8-10,89.1,77.1,72.3,63.1,48.8,34.2,55,39,18,30.03,29.94,8,1,11,0.04
2013-8-11,90.5,76.5,70.2,57.2,45.0,31.3,48,35,15,30.06,29.97,5,0,8,0.00
2013-8-12,91.8,77.9,70.9,56.6,44.7,29.4,47,33,12,30.03,29.88,5,0,8,0.00
2013-8-13,88.5,77.9,71.6,53.2,43.0,30.0,46,31,13,29.91,29.73,7,2,9,0.00
2013-8-14,82.0,74.0,68.5,43.5,37.3,29.8,34,27,17,29.97,29.79,3,0,4,0.00
2013-8-15,74.3,69.4,66.9,38.4,31.7,22.4,33,25,16,30.03,29.94,5,1,8,0.00
2013-8-16,74.8,68.1,65.8,32.0,28.7,26.9,26,23,20,30.06,29.97,5,0,7,0.00
2013-8-17,69.3,66.7,65.5,42.5,32.9,28.1,43,29,23,30.09,30.03,5,0,7,0.20
2013-8-18,74.3,68.7,65.5,52.8,46.6,41.7,50,45,39,30.12,30.03,7,0,9,0.64
2013-8-19,75.2,70.4,67.6,55.0,49.7,47.0,52,48,43,30.09,30.00,3,0,6,2.05
2013-8-20,79.7,73.2,69.6,55.4,48.1,41.2,51,42,29,30.09,30.00,3,0,4,0.00
2013-8-21,78.8,73.2,70.3,56.0,49.3,42.9,50,43,33,30.15,30.03,4,0,5,0.36
2013-8-22,88.7,74.1,68.5,57.7,47.1,33.2,49,39,19,30.09,29.94,7,0,11,0.55
2013-8-23,87.3,74.7,69.1,56.4,44.9,31.3,50,37,15,30.00,29.88,6,0,8,0.39
2013-8-24,84.2,72.8,66.6,51.1,38.1,23.2,48,32,13,30.18,29.97,5,1,9,0.00
2013-8-25,82.6,70.4,63.0,41.2,31.4,22.2,35,25,14,30.29,30.18,4,0,6,0.00
2013-8-26,83.8,71.7,62.6,43.6,34.0,24.0,40,27,13,30.24,30.03,3,0,4,0.00
2013-8-27,87.8,73.7,64.0,49.2,37.8,26.2,43,30,13,30.06,29.91,0,0,0,0.00
2013-8-28,90.0,76.3,67.8,51.6,40.1,27.2,43,30,12,29.97,29.85,0,0,0,0.00
2013-8-29,90.3,77.9,70.2,51.6,42.0,27.9,42,30,12,29.88,29.79,0,0,0,0.00
2013-8-30,83.3,76.3,72.9,54.4,46.6,39.3,44,35,24,29.97,29.85,0,0,0,1.02
2013-8-31,89.6,75.0,71.2,56.5,48.2,33.2,50,40,18,29.88,29.79,4,0,9,0.08
2013-9-1,86.4,74.9,70.3,59.7,49.3,33.1,53,42,20,29.85,29.73,15,0,18,0.24
2013-9-2,84.0,75.2,70.0,54.8,46.4,39.7,48,37,23,29.82,29.73,0,0,0,0.00
2013-9-3,88.5,75.7,66.9,53.1,42.2,33.5,47,32,16,29.88,29.76,7,1,12,0.71
2013-9-4,86.5,75.0,67.6,49.5,39.7,26.2,43,30,13,30.00,29.88,0,0,0,0.00
2013-9-5,88.7,75.5,68.2,51.9,40.6,26.2,45,31,13,30.03,29.97,0,0,0,0.00
2013-9-6,85.5,73.7,66.6,43.1,34.3,23.7,35,25,13,30.09,29.97,0,0,0,0.00
2013-9-7,84.6,73.3,65.5,46.3,36.5,25.7,42,28,13,30.06,29.91,0,0,0,0.00
2013-9-8,88.2,74.8,66.2,50.5,39.1,26.3,43,30,13,29.91,29.85,0,0,0,0.00
2013-9-9,88.2,75.7,68.0,50.7,39.5,27.2,43,30,13,30.06,29.88,0,0,0,0.00
2013-9-10,88.2,76.2,68.2,51.7,40.0,26.2,44,30,13,30.15,30.03,0,0,0,0.00
2013-9-11,88.9,75.9,67.8,51.2,39.8,26.5,44,30,12,30.15,30.00,0,0,0,0.00
2013-9-12,90.3,74.7,70.2,52.0,43.6,26.5,43,34,13,30.03,29.79,0,0,0,0.00
2013-9-13,86.5,74.1,66.4,45.4,33.4,18.0,39,25,11,29.82,29.70,0,0,0,0.00
2013-9-14,80.2,68.2,59.0,31.2,24.2,17.8,31,20,12,30.00,29.79,0,0,0,0.00
2013-9-15,81.3,70.3,63.1,36.4,31.3,24.3,33,25,14,30.09,30.00,0,0,0,0.00
2013-9-16,87.1,73.6,65.3,47.0,35.3,24.0,41,27,13,30.06,29.94,0,0,0,0.00
2013-9-17,73.4,69.8,67.6,31.7,25.4,21.6,22,19,16,30.21,30.03,4,0,7,0.00
2013-9-18,76.1,68.4,64.9,31.9,23.7,19.3,28,19,15,30.18,30.06,0,0,0,0.00
2013-9-19,83.8,71.0,61.7,43.8,33.8,23.7,40,27,13,30.09,29.97,0,0,0,0.00
2013-9-20,86.0,73.9,66.2,47.1,35.8,24.3,42,27,13,30.00,29.82,0,0,0,0.00
2013-9-21,70.9,68.8,65.8,47.2,43.9,34.5,47,41,32,29.85,29.59,0,0,0,1.58
2013-9-22,80.8,68.7,60.1,49.9,37.0,22.2,51,35,14,29.82,29.64,0,0,0,0.00
2013-9-23,80.1,69.3,63.7,32.5,28.4,19.6,30,22,13,29.94,29.79,0,0,0,0.00
2013-9-24,72.5,67.4,63.0,41.7,35.0,29.9,39,31,23,29.97,29.82,0,0,0,0.00
2013-9-25,68.2,65.2,63.1,43.8,41.3,37.3,47,42,33,29.85,29.76,0,0,0,1.58
2013-9-26,76.3,67.4,62.2,48.2,38.6,28.3,49,37,20,29.94,29.79,0,0,0,0.00
2013-9-27,80.1,67.4,59.2,40.3,31.0,21.8,41,28,14,30.06,29.91,0,0,0,0.00
2013-9-28,77.5,67.1,59.7,33.8,26.1,20.3,33,22,15,30.15,30.03,0,0,0,0.00
2013-9-29,75.0,65.0,57.4,34.1,25.5,20.4,32,23,15,30.09,29.94,0,0,0,0.00
2013-9-30,79.0,67.5,59.9,41.9,32.0,18.9,42,29,13,30.00,29.91,0,0,0,0.00
2013-10-1,82.4,68.1,58.3,41.3,31.3,18.9,41,28,12,30.06,29.94,0,0,0,0.00
2013-10-2,84.4,69.2,59.9,43.2,33.7,23.6,40,29,13,30.06,29.97,0,0,0,0.00
2013-10-3,84.7,70.6,61.9,45.4,34.8,23.7,43,29,13,30.03,29.97,0,0,0,0.00
2013-10-4,85.5,70.8,61.3,44.8,34.3,23.7,42,28,13,30.06,29.97,0,0,0,0.00
2013-10-5,86.7,71.8,62.4,46.6,35.0,23.8,42,28,13,30.03,29.94,0,0,0,0.00
2013-10-6,84.7,72.0,65.3,46.4,35.8,23.7,42,29,13,29.97,29.76,4,0,7,0.39
2013-10-7,79.9,70.2,63.9,51.1,38.5,26.3,45,33,21,29.88,29.73,5,0,9,0.71
2013-10-8,75.9,65.4,60.1,26.1,22.4,16.7,26,20,13,30.06,29.88,7,0,7,0.00
2013-10-9,75.9,63.6,55.0,24.1,18.4,13.1,26,18,13,30.12,30.00,0,0,0,0.00
2013-10-10,80.1,64.3,52.7,37.4,27.1,18.2,37,26,12,30.03,29.88,0,0,0,0.00
2013-10-11,82.4,67.0,56.8,37.8,28.7,18.4,37,26,12,29.94,29.82,0,0,0,0.00
2013-10-12,82.8,67.8,57.6,39.1,28.7,18.9,36,25,12,30.00,29.88,0,0,0,0.00
2013-10-13,76.6,68.3,64.2,41.5,35.7,28.0,38,31,21,30.12,29.97,0,0,0,0.08
2013-10-14,74.1,67.0,62.8,46.1,37.8,30.1,46,35,23,30.12,30.03,0,0,5,0.00
2013-10-15,72.1,65.0,59.4,36.9,31.2,25.0,36,29,19,30.09,29.97,0,0,3,0.00
2013-10-16,73.6,63.9,56.7,41.4,31.5,22.4,43,31,16,30.00,29.85,0,0,0,0.00
2013-10-17,67.8,65.2,63.1,45.5,40.6,32.5,47,41,33,29.91,29.76,4,1,7,0.16
2013-10-18,75.9,64.8,58.6,44.8,35.7,20.6,49,37,16,29.91,29.79,4,0,5,0.00
2013-10-19,65.1,61.0,54.1,37.8,32.4,25.5,42,34,26,29.88,29.76,7,1,8,0.00
2013-10-20,70.9,57.1,48.0,32.5,22.9,13.4,39,28,14,29.97,29.85,4,0,5,0.00
2013-10-21,70.9,58.7,49.1,34.9,24.1,18.9,36,27,17,30.03,29.91,5,0,6,0.00
2013-10-22,71.4,61.6,57.6,36.9,29.9,22.7,39,31,20,29.94,29.73,4,0,7,0.00
2013-10-23,66.7,55.8,45.1,26.4,17.3,5.6,32,23,15,29.94,29.67,10,2,12,0.00
2013-10-24,65.8,50.9,39.0,20.7,11.3,3.7,29,21,15,30.06,29.94,11,2,14,0.00
2013-10-25,62.2,49.5,40.8,15.4,8.7,3.7,23,19,16,30.24,30.06,5,0,6,0.00
2013-10-26,61.7,47.2,34.9,15.7,8.5,0.2,30,21,16,30.24,30.00,8,2,11,0.00
2013-10-27,74.1,56.4,44.1,29.3,16.9,6.0,34,22,13,30.03,29.94,7,1,9,0.00
2013-10-28,67.8,60.0,55.4,38.5,28.3,21.2,40,30,23,30.15,30.00,5,0,7,0.04
2013-10-29,75.0,60.5,50.0,37.3,25.4,16.1,40,28,13,30.24,30.12,3,0,4,0.00
2013-10-30,80.1,65.0,57.0,38.0,28.4,18.1,39,27,13,30.18,30.06,6,0,7,0.00
2013-10-31,68.5,63.1,58.3,38.5,31.8,26.9,39,31,23,30.09,29.79,4,0,6,0.00
2013-11-1,76.5,66.6,58.8,45.9,36.1,26.0,45,34,18,29.82,29.56,8,2,9,0.32
2013-11-2,69.1,58.3,49.6,30.7,19.3,9.6,36,23,14,29.91,29.67,14,1,19,0.00
2013-11-3,67.8,52.9,41.7,23.6,13.2,6.0,29,21,15,30.24,29.91,4,0,5,0.00
2013-11-4,65.5,52.0,43.3,16.5,12.8,6.6,29,21,15,30.38,30.24,5,1,8,0.00
2013-11-5,66.6,52.9,44.1,17.4,10.3,5.5,21,18,15,30.41,30.26,5,1,7,0.00
2013-11-6,71.2,59.3,52.0,30.2,22.2,13.2,35,25,14,30.26,30.03,4,0,7,0.00
2013-11-7,75.0,60.4,47.3,39.9,22.6,7.1,38,25,13,30.03,29.88,9,2,10,0.04
2013-11-8,65.7,49.3,38.5,16.7,8.5,1.9,23,19,15,30.21,30.06,5,0,5,0.00
2013-11-9,63.7,48.7,36.9,18.4,9.9,2.6,29,21,15,30.26,30.12,5,1,7,0.00
2013-11-10,76.5,57.5,44.6,23.2,14.4,5.9,28,19,13,30.12,30.00,8,1,8,0.00
2013-11-11,66.7,52.5,41.7,17.5,10.2,3.8,24,18,15,30.24,30.06,5,0,6,0.00
2013-11-12,67.5,49.6,36.0,21.6,10.1,0.2,29,20,15,30.32,29.97,11,2,11,0.00
2013-11-13,56.8,40.6,29.7,12.4,3.1,-3.6,23,21,17,30.41,30.32,5,1,7,0.00
2013-11-14,63.9,43.4,28.9,16.4,4.8,-4.2,25,20,15,30.35,30.21,6,1,7,0.00
2013-11-15,54.7,47.1,35.6,24.6,9.9,0.2,35,22,17,30.21,30.06,4,0,6,0.24
2013-11-16,60.3,56.1,51.3,35.1,30.1,24.6,41,37,34,30.15,30.06,4,0,5,0.00
2013-11-17,60.8,59.2,57.6,40.4,36.6,32.2,48,43,38,30.09,29.82,4,0,5,0.80
2013-11-18,74.7,62.2,51.8,47.4,28.6,9.6,54,32,13,29.91,29.76,9,2,11,0.00
2013-11-19,64.6,51.4,40.6,16.4,9.4,3.7,21,18,15,30.12,29.88,7,1,7,0.00
2013-11-20,59.7,50.1,43.0,14.7,8.9,4.4,20,19,17,30.29,30.12,7,2,9,0.00
2013-11-21,52.2,50.6,48.7,26.5,15.8,8.3,37,26,19,30.32,30.24,5,1,7,0.20
2013-11-22,62.2,56.7,51.8,40.0,33.1,26.3,45,41,37,30.26,30.03,4,0,5,0.04
2013-11-23,62.3,55.7,41.8,57.9,39.4,19.4,96,56,31,30.25,29.97,6,0,6,0.00
2013-11-24,46.2,37.4,29.7,27.7,18.6,10.7,74,48,25,30.59,30.24,5,0,5,0.00
2013-11-25,41.6,33.5,28.3,30.5,13.8,7.2,84,45,27,30.62,30.39,5,0,5,0.03
2013-11-26,48.8,42.7,33.8,48.3,41.9,30.0,98,97,83,30.39,29.69,4,0,5,3.22
2013-11-27,49.4,40.9,28.3,48.9,34.0,20.8,98,78,47,30.28,29.61,15,1,15,0.19
2013-11-28,46.3,33.4,24.0,32.7,26.3,19.0,94,77,48,30.56,30.28,2,0,4,0.02
2013-11-29,57.1,39.3,26.6,45.2,29.7,0.0,97,73,33,30.64,29.66,3,0,3,0.00
2013-11-30,49.2,39.7,33.2,31.7,27.8,24.7,90,64,39,30.69,30.44,6,0,7,0.00
2013-12-1,55.7,44.0,37.0,42.8,36.2,31.0,94,75,51,30.44,30.07,5,0,5,0.00
2013-12-2,79.0,46.8,34.8,77.8,43.6,33.5,98,89,60,30.08,29.86,3,0,6,0.03
2013-12-3,54.4,51.4,48.4,53.0,50.6,47.9,98,97,92,30.01,29.92,4,0,4,0.18
2013-12-4,58.9,56.1,52.9,58.2,55.6,52.3,99,98,96,30.12,29.99,2,0,2,0.02
2013-12-5,67.3,61.5,57.9,67.0,61.1,57.3,99,99,98,30.14,30.03,6,0,6,0.52
2013-12-6,71.8,67.6,63.1,67.5,65.7,62.2,99,94,85,30.09,29.99,9,0,9,0.29
2013-12-7,65.2,58.6,50.4,62.2,54.2,43.2,98,86,65,30.40,30.02,6,0,7,0.01
2013-12-8,50.4,41.9,37.3,43.8,39.7,36.2,97,92,77,30.42,30.31,5,0,7,0.47
2013-12-9,46.1,41.8,37.4,45.5,41.1,36.5,99,98,96,30.34,30.09,4,0,4,0.99
2013-12-10,58.6,47.4,33.6,51.8,37.7,20.6,99,73,35,30.38,29.98,21,1,21,0.19
2013-12-11,51.8,37.5,27.1,35.6,29.7,25.8,96,76,43,30.52,30.37,6,0,6,0.00
2013-12-12,51.7,37.4,27.5,34.8,27.1,16.7,96,71,25,30.48,30.37,2,0,3,0.00
2013-12-13,51.2,38.0,25.8,35.5,29.0,23.8,94,73,37,30.45,30.31,3,0,3,0.00
2013-12-14,47.5,44.6,40.5,46.5,43.3,33.5,98,95,76,30.31,29.84,4,0,4,1.26
2013-12-15,51.4,44.8,32.5,47.0,37.1,29.2,98,76,47,30.19,29.81,14,1,15,0.00
2013-12-16,59.1,42.4,29.0,38.6,31.9,28.0,97,71,33,30.26,30.16,14,1,17,0.00
2013-12-17,63.9,47.7,31.7,40.7,34.8,24.7,96,65,31,30.24,30.03,22,2,23,0.00
2013-12-18,54.5,43.2,32.9,29.3,22.5,13.4,84,46,21,30.36,30.15,12,0,12,0.00
2013-12-19,61.1,42.2,28.1,36.5,29.3,24.2,90,65,27,30.41,30.28,5,0,5,0.00
2013-12-20,56.7,44.9,33.7,47.4,39.3,31.1,92,81,60,30.32,30.21,2,0,3,0.00
2013-12-21,59.2,55.6,50.1,58.9,54.7,47.0,99,97,89,30.19,30.04,4,0,4,0.11
2013-12-22,65.7,60.8,57.7,64.3,60.4,57.4,99,99,92,30.11,30.00,8,0,8,2.08
2013-12-23,60.7,55.0,42.1,57.7,52.8,39.7,99,93,69,30.21,30.04,7,0,7,0.29
2013-12-24,47.1,39.4,29.4,41.0,29.3,20.1,95,70,36,30.48,30.21,12,1,12,0.00
2013-12-25,40.7,31.8,25.0,24.8,19.8,13.7,83,63,37,30.61,30.45,5,0,5,0.00
2013-12-26,53.2,36.4,25.5,35.3,28.4,22.3,93,75,42,30.47,30.31,3,0,3,0.00
2013-12-27,51.4,37.5,28.0,34.3,29.0,23.9,96,75,38,30.56,30.41,3,0,3,0.00
2013-12-28,47.5,37.8,27.7,42.3,34.2,25.8,96,87,67,30.50,30.13,5,0,5,0.41
2013-12-29,62.0,48.5,41.1,52.4,44.7,40.0,98,88,63,30.14,29.86,10,1,11,0.58
2013-12-30,53.6,44.8,36.0,45.2,40.0,34.7,97,84,64,30.20,30.02,9,1,9,0.00
2013-12-31,53.7,42.9,35.3,37.7,31.2,19.5,93,67,28,30.43,30.18,7,0,8,0.00
2014-1-1,49.2,39.4,31.5,37.1,33.4,29.9,95,80,55,30.46,30.23,2,0,2,0.00
2014-1-2,48.2,41.6,28.2,46.2,36.8,15.5,97,84,57,30.23,29.75,16,1,16,0.17